Tracking 30970 objects as of 3-Jul-2025
HD Live streaming from Space Station
objects crossing your sky now

STARLINK-4317

Track STARLINK-4317 now!
10-day predictions
STARLINK-4317 is classified as:


NORAD ID: 53058
Int'l Code: 2022-077R
Perigee: 565.4 km
Apogee: 570.3 km
Inclination: 97.7 °
Period: 95.9 minutes
Semi major axis: 6938 km
RCS: Unknown
Launch date: July 11, 2022
Source: United States (US)
Launch site: AIR FORCE WESTERN TEST RANGE (AFWTR)
Your satellite tracking list
Your tracking list is empty




NASA's NSSDC Master Catalog

Two Line Element Set (TLE):
1 53058U 22077R   25183.95700110  .00097012  00000-0  73090-2 0  9991
2 53058  97.6553   5.3040 0003468 155.3195 204.8196 15.02007737163451
Source of the keplerian elements: AFSPC